Time,TemperatureF,DewpointF,PressureIn,WindDirection,WindDirectionDegrees,WindSpeedMPH,WindSpeedGustMPH,Humidity,HourlyPrecipIn,Conditions,Clouds,dailyrainin,SoftwareType,DateUTC
2013-07-11 00:02:00,77.0,66.0,29.85,North,5,1.0,2.0,69,0.00,,,0.04,,2013-07-11 04:02:00,
2013-07-11 00:32:00,75.0,67.0,29.84,North,5,0.0,1.0,75,0.00,,,0.04,,2013-07-11 04:32:00,
2013-07-11 00:42:00,75.0,67.0,29.84,North,5,0.0,2.0,75,0.00,,,0.04,,2013-07-11 04:42:00,
2013-07-11 00:53:00,75.0,67.0,29.84,North,5,1.0,3.0,76,0.00,,,0.04,,2013-07-11 04:53:00,
2013-07-11 01:02:00,74.0,66.0,29.84,WSW,240,0.0,5.0,77,0.00,,,0.04,,2013-07-11 05:02:00,
2013-07-11 01:22:00,73.0,66.0,29.84,WSW,240,0.0,2.0,78,0.00,,,0.04,,2013-07-11 05:22:00,
2013-07-11 01:32:00,73.0,66.0,29.84,WSW,240,0.0,3.0,78,0.00,,,0.04,,2013-07-11 05:32:00,
2013-07-11 01:43:00,73.0,66.0,29.85,WSW,240,0.0,1.0,79,0.00,,,0.04,,2013-07-11 05:43:00,
2013-07-11 01:52:00,72.0,65.0,29.85,WSW,240,0.0,1.0,79,0.00,,,0.04,,2013-07-11 05:52:00,
2013-07-11 02:01:00,72.0,65.0,29.85,WSW,240,0.0,1.0,79,0.00,,,0.04,,2013-07-11 06:01:00,
2013-07-11 02:12:00,72.0,65.0,29.86,WSW,240,0.0,0.0,79,0.00,,,0.04,,2013-07-11 06:12:00,
2013-07-11 02:22:00,72.0,65.0,29.86,WSW,240,0.0,1.0,80,0.00,,,0.04,,2013-07-11 06:22:00,
2013-07-11 02:32:00,72.0,65.0,29.86,WSW,240,0.0,0.0,80,0.00,,,0.04,,2013-07-11 06:32:00,
2013-07-11 02:43:00,72.0,65.0,29.86,WSW,240,0.0,0.0,80,0.00,,,0.04,,2013-07-11 06:43:00,
2013-07-11 02:52:00,72.0,65.0,29.86,WSW,240,0.0,0.0,80,0.00,,,0.04,,2013-07-11 06:52:00,
2013-07-11 03:02:00,71.0,65.0,29.86,WSW,240,0.0,0.0,80,0.00,,,0.04,,2013-07-11 07:02:00,
2013-07-11 03:22:00,72.0,65.0,29.86,WSW,240,0.0,1.0,80,0.00,,,0.04,,2013-07-11 07:22:00,
2013-07-11 03:45:00,72.0,65.0,29.86,WSW,240,0.0,0.0,79,0.00,,,0.04,,2013-07-11 07:45:00,
2013-07-11 03:53:00,72.0,65.0,29.86,WSW,240,0.0,0.0,79,0.00,,,0.04,,2013-07-11 07:53:00,
2013-07-11 04:02:00,72.0,65.0,29.86,WSW,240,0.0,0.0,79,0.00,,,0.04,,2013-07-11 08:02:00,
2013-07-11 04:22:00,72.0,65.0,29.86,WSW,240,0.0,0.0,79,0.00,,,0.04,,2013-07-11 08:22:00,
2013-07-11 04:34:00,72.0,65.0,29.86,WSW,240,0.0,1.0,79,0.00,,,0.04,,2013-07-11 08:34:00,
2013-07-11 04:43:00,72.0,65.0,29.86,WSW,240,0.0,0.0,78,0.00,,,0.04,,2013-07-11 08:43:00,
2013-07-11 05:03:00,72.0,65.0,29.87,WSW,240,0.0,0.0,78,0.00,,,0.04,,2013-07-11 09:03:00,
2013-07-11 05:33:00,72.0,64.0,29.87,WSW,244,0.0,2.0,77,0.00,,,0.04,,2013-07-11 09:33:00,
2013-07-11 05:43:00,72.0,64.0,29.87,WSW,244,0.0,0.0,76,0.00,,,0.04,,2013-07-11 09:43:00,
2013-07-11 05:53:00,72.0,64.0,29.87,WSW,244,0.0,0.0,77,0.00,,,0.04,,2013-07-11 09:53:00,
2013-07-11 06:01:00,72.0,64.0,29.87,WSW,245,0.0,2.0,76,0.00,,,0.04,,2013-07-11 10:01:00,
2013-07-11 06:43:00,72.0,64.0,29.89,NW,319,0.0,0.0,75,0.00,,,0.04,,2013-07-11 10:43:00,
2013-07-11 06:52:00,72.0,64.0,29.89,NW,319,0.0,1.0,75,0.00,,,0.04,,2013-07-11 10:52:00,
2013-07-11 07:02:00,73.0,65.0,29.90,NNW,329,2.0,5.0,75,0.00,,,0.04,,2013-07-11 11:02:00,
2013-07-11 07:22:00,73.0,64.0,29.91,NNW,345,4.0,6.0,74,0.00,,,0.04,,2013-07-11 11:22:00,
2013-07-11 07:32:00,73.0,65.0,29.91,NNW,345,2.0,6.0,75,0.00,,,0.04,,2013-07-11 11:32:00,
2013-07-11 07:43:00,73.0,64.0,29.91,NNW,345,2.0,5.0,74,0.00,,,0.04,,2013-07-11 11:43:00,
2013-07-11 07:53:00,73.0,64.0,29.91,NNW,345,0.0,3.0,74,0.00,,,0.04,,2013-07-11 11:53:00,
2013-07-11 08:01:00,73.0,64.0,29.92,NNW,345,4.0,5.0,74,0.00,,,0.04,,2013-07-11 12:01:00,
2013-07-11 08:12:00,74.0,65.0,29.92,NNW,345,4.0,5.0,74,0.00,,,0.04,,2013-07-11 12:12:00,
2013-07-11 08:22:00,74.0,64.0,29.92,NNW,343,5.0,7.0,72,0.00,,,0.04,,2013-07-11 12:22:00,
2013-07-11 08:33:00,74.0,65.0,29.92,NNW,344,5.0,7.0,73,0.00,,,0.04,,2013-07-11 12:33:00,
2013-07-11 08:43:00,74.0,64.0,29.93,NNW,340,5.0,8.0,71,0.00,,,0.04,,2013-07-11 12:43:00,
2013-07-11 08:55:00,74.0,64.0,29.93,NNW,341,3.0,7.0,71,0.00,,,0.04,,2013-07-11 12:55:00,
2013-07-11 09:02:00,74.0,64.0,29.93,NNW,343,4.0,6.0,71,0.00,,,0.04,,2013-07-11 13:02:00,
2013-07-11 09:13:00,75.0,65.0,29.93,NNW,342,4.0,8.0,71,0.00,,,0.04,,2013-07-11 13:13:00,
2013-07-11 09:34:00,75.0,64.0,29.93,NNW,342,6.0,9.0,69,0.00,,,0.04,,2013-07-11 13:34:00,
2013-07-11 10:05:00,77.0,65.0,29.93,North,355,6.0,11.0,67,0.00,,,0.04,,2013-07-11 14:05:00,
2013-07-11 10:35:00,78.0,66.0,29.93,North,355,6.0,10.0,66,0.00,,,0.04,,2013-07-11 14:35:00,
2013-07-11 10:54:00,78.0,65.0,29.93,NNW,331,6.0,12.0,65,0.00,,,0.04,,2013-07-11 14:54:00,
2013-07-11 11:06:00,79.0,67.0,29.93,North,355,3.0,8.0,67,0.00,,,0.04,,2013-07-11 15:06:00,
2013-07-11 11:24:00,79.0,66.0,29.93,WSW,244,1.0,11.0,65,0.00,,,0.01,,2013-07-11 15:24:00,
2013-07-11 12:35:00,81.0,66.0,29.93,North,350,6.0,12.0,61,0.00,,,0.01,,2013-07-11 16:35:00,
2013-07-11 12:55:00,82.0,66.0,29.93,NNE,15,5.0,12.0,59,0.00,,,0.01,,2013-07-11 16:55:00,
2013-07-11 13:03:00,80.0,66.0,29.93,NNW,344,7.0,9.0,63,0.00,,,0.01,,2013-07-11 17:03:00,
2013-07-11 13:16:00,81.0,68.0,29.93,NNW,343,5.0,9.0,65,0.00,,,0.01,,2013-07-11 17:16:00,
2013-07-11 13:47:00,82.0,66.0,29.92,NNW,347,6.0,9.0,59,0.00,,,0.01,,2013-07-11 17:47:00,
2013-07-11 13:53:00,82.0,66.0,29.91,North,351,5.0,9.0,59,0.00,,,0.01,,2013-07-11 17:53:00,
2013-07-11 14:05:00,83.0,66.0,29.91,NNW,331,5.0,9.0,57,0.00,,,0.01,,2013-07-11 18:05:00,
2013-07-11 14:35:00,82.0,65.0,29.91,North,9,3.0,10.0,57,0.00,,,0.01,,2013-07-11 18:35:00,
2013-07-11 14:47:00,82.0,65.0,29.91,NNW,333,7.0,10.0,56,0.00,,,0.01,,2013-07-11 18:47:00,
2013-07-11 15:05:00,82.0,64.0,29.91,NNW,344,4.0,10.0,55,0.00,,,0.01,,2013-07-11 19:05:00,
2013-07-11 15:39:00,84.0,68.0,29.90,NNW,338,2.0,8.0,58,0.00,,,0.00,,2013-07-11 19:39:00,
2013-07-11 15:45:00,85.0,66.0,29.90,NW,324,2.0,5.0,54,0.00,,,0.00,,2013-07-11 19:45:00,
2013-07-11 16:07:00,84.0,66.0,29.89,North,355,0.0,9.0,54,0.00,,,0.00,,2013-07-11 20:07:00,
2013-07-11 16:13:00,84.0,67.0,29.89,North,355,1.0,5.0,56,0.00,,,0.00,,2013-07-11 20:13:00,
2013-07-11 16:38:00,83.0,65.0,29.89,NNW,339,6.0,8.0,55,0.00,,,0.00,,2013-07-11 20:38:00,
2013-07-11 16:47:00,82.0,65.0,29.88,NNW,341,4.0,8.0,56,0.00,,,0.00,,2013-07-11 20:47:00,
2013-07-11 16:54:00,83.0,66.0,29.89,NNW,340,4.0,8.0,56,0.00,,,0.00,,2013-07-11 20:54:00,
2013-07-11 17:05:00,83.0,66.0,29.89,North,349,4.0,7.0,56,0.00,,,0.00,,2013-07-11 21:05:00,
2013-07-11 17:15:00,83.0,65.0,29.89,North,360,3.0,7.0,55,0.00,,,0.00,,2013-07-11 21:15:00,
2013-07-11 17:45:00,83.0,66.0,29.89,NNE,20,2.0,6.0,56,0.00,,,0.00,,2013-07-11 21:45:00,
2013-07-11 17:56:00,83.0,66.0,29.89,NNE,14,4.0,6.0,57,0.00,,,0.00,,2013-07-11 21:56:00,
2013-07-11 18:35:00,82.0,65.0,29.89,NNE,17,3.0,6.0,57,0.00,,,0.00,,2013-07-11 22:35:00,
2013-07-11 18:47:00,82.0,65.0,29.90,NNE,26,4.0,7.0,56,0.00,,,0.00,,2013-07-11 22:47:00,
2013-07-11 18:54:00,81.0,65.0,29.90,NNE,28,4.0,6.0,58,0.00,,,0.00,,2013-07-11 22:54:00,
2013-07-11 19:06:00,81.0,66.0,29.90,NNE,28,3.0,5.0,60,0.00,,,0.00,,2013-07-11 23:06:00,
2013-07-11 19:26:00,80.0,66.0,29.90,NNE,29,2.0,4.0,62,0.00,,,0.00,,2013-07-11 23:26:00,
2013-07-11 19:36:00,80.0,65.0,29.91,NNE,22,2.0,8.0,61,0.00,,,0.00,,2013-07-11 23:36:00,
2013-07-11 19:47:00,80.0,65.0,29.91,NNE,22,1.0,4.0,60,0.00,,,0.00,,2013-07-11 23:47:00,
2013-07-11 19:55:00,79.0,65.0,29.92,NNE,22,1.0,4.0,62,0.00,,,0.00,,2013-07-11 23:55:00,
2013-07-11 20:05:00,79.0,65.0,29.92,NNE,22,0.0,3.0,62,0.00,,,0.00,,2013-07-12 00:05:00,
2013-07-11 20:26:00,79.0,65.0,29.92,NNE,22,0.0,0.0,62,0.00,,,0.00,,2013-07-12 00:26:00,
2013-07-11 20:37:00,79.0,65.0,29.92,NNW,346,0.0,3.0,62,0.00,,,0.00,,2013-07-12 00:37:00,
2013-07-11 20:45:00,79.0,65.0,29.91,NNW,340,2.0,4.0,63,0.00,,,0.00,,2013-07-12 00:45:00,
2013-07-11 21:05:00,78.0,65.0,29.91,North,350,2.0,4.0,65,0.00,,,0.00,,2013-07-12 01:05:00,
2013-07-11 21:37:00,77.0,64.0,29.91,North,350,1.0,3.0,65,0.00,,,0.00,,2013-07-12 01:37:00,
2013-07-11 22:07:00,76.0,64.0,29.92,North,10,1.0,5.0,66,0.00,,,0.00,,2013-07-12 02:07:00,
2013-07-11 22:16:00,76.0,64.0,29.92,North,10,1.0,5.0,66,0.00,,,0.00,,2013-07-12 02:16:00,
2013-07-11 22:45:00,75.0,63.0,29.93,North,10,2.0,4.0,66,0.00,,,0.00,,2013-07-12 02:45:00,
2013-07-11 22:54:00,75.0,63.0,29.93,North,10,1.0,3.0,66,0.00,,,0.00,,2013-07-12 02:54:00,
2013-07-11 23:04:00,75.0,63.0,29.92,North,10,0.0,2.0,66,0.00,,,0.00,,2013-07-12 03:04:00,
2013-07-11 23:37:00,73.0,63.0,29.93,North,10,0.0,2.0,72,0.00,,,0.00,,2013-07-12 03:37:00,
2013-07-11 23:45:00,73.0,65.0,29.92,North,10,0.0,2.0,75,0.00,,,0.00,,2013-07-12 03:45:00,
2013-07-11 23:54:00,73.0,65.0,29.92,North,10,0.0,0.0,75,0.00,,,0.00,,2013-07-12 03:54:00,